Regional Weather Roundup
Issued by NWS Northern Indiana

Home | Current Version | Previous Version | Text Only | Print | Product List | Glossary Off
Versions: 1 2 3 4 5 6 7 8 9 10 11 12 13 14 15 16 17 18 19 20 21 22 23 24 25 26 27 28 29 30 31 32 33 34 35 36 37 38 39 40 41 42 43 44 45 46 47 48 49 50

986
ASUS43 KIWX 251001
RWRIWX

KIWX WEATHER ROUNDUP
NATIONAL WEATHER SERVICE NORTHERN INDIANA
600 AM EDT SUN JUN 25 2017

NOTE: "FAIR" INDICATES FEW OR NO CLOUDS BELOW 12,000 FEET WITH NO
SIGNIFICANT WEATHER AND/OR OBSTRUCTIONS TO VISIBILITY.

* THESE STATIONS ARE NOT UNDER NWS QUALITY CONTROL. THEY ALSO MAY NOT
  REPORT WEATHER SUCH AS PRECIPITATION OR FOG.

INZ001>027-251100-
NORTHERN INDIANA

CITY           SKY/WX    TMP DP  RH WIND       PRES   REMARKS
GARY*          CLOUDY    55  45  67 W9        30.07S
KNOX*          PTCLDY    55  39  54 W8        30.06R
SOUTH BEND     CLEAR     54  48  80 W9        30.04S
GOSHEN         PTCLDY    55  46  71 SW8       30.03R
MONTICELLO*    MOCLDY    56  48  76 W7        30.07S
FORT WAYNE     MOCLDY    55  48  77 SW10      30.05R
PERU/GRISSOM   PTCLDY    56  48  74 SW14      30.06R

$$
INZ028>050-251100-
CENTRAL INDIANA

CITY           SKY/WX    TMP DP  RH WIND       PRES   REMARKS
LAFAYETTE      PTCLDY    53  49  86 W6        30.09R
KOKOMO*        PTCLDY    59  47  64 SW10      30.08R
MUNCIE*        CLEAR     58  47  66 SW7       30.09R
INDIANAPOLIS   PTCLDY    54  49  83 SW8       30.11R

$$
MIZ043>046-050>051-056>058-064>065-071>073-077>080-251100-
SOUTHWEST LOWER MICHIGAN

CITY           SKY/WX    TMP DP  RH WIND       PRES   REMARKS
BATTLE CREEK   MOCLDY    56  53  90 W7        30.01R
BENTON HARBOR  PTCLDY    58  47  66 W10       30.03R
COLDWATER*     PTCLDY    54  50  86 SW3       30.01S
HILLSDALE*     LGT RAIN  55  48  76 NW7       30.01R
HOLLAND        CLEAR     57  49  74 W9        30.01R
GRAND RAPIDS   PTCLDY    54  50  86 W8        29.99R
KALAMAZOO      MOCLDY    56  51  84 W3        30.01R
STURGIS*       CLOUDY    55  48  77 SW6       30.01R
THREE RIVERS*  MOCLDY    55  51  86 W5        30.02R

$$
OHZ001>008-015>018-024>025-251100-
NORTHWEST OHIO

CITY           SKY/WX    TMP DP  RH WIND       PRES   REMARKS
DEFIANCE       CLEAR     54  48  80 SW5       30.03S
FINDLAY        CLEAR     57  49  74 SW7       30.03S
TOLEDO EXPRESS CLEAR     55  50  83 SW6       30.01R
TOLEDO METCALF CLEAR     56  52  86 MISG      30.02R
LIMA           CLEAR     55  49  80 SW7       30.06R

$$
AND FOR LAKE MICHIGAN COASTAL AND OPEN LAKE BUOY OBSERVATIONS

STATION/POSITION TEMP    WIND        PRES    VSBY  WAVE
                 AIR SEA DIR/SP/G                  HT/PER
                 (F)     (DEG/KT/KT) (MB)    (MI)  (FT/S)
CALUMET HARBOR    58     260/  2/  6 1017.5R
MICHIGAN CITY     60     270/ 22/ 25   N/A
BURNS HARBOR      62     300/ 15/ 19 1017.9R
SOUTH LAKE BUOY   57 61  310/ 17/ 19 1015.8          3/ 5
4 MI NW BRIDGMAN  61 68  310/ 17/ 23 1017.3R         5/ 5
MICHIGAN CITY     61 67  290/ 16/ 21   N/A           5/ 5

$$
&&




USA.gov is the U.S. government's official web portal to all federal, state and local government web resources and services.